GALAXY 30 (G-30)

Last updated on Sat Jun 14 2025 00:02:48 GMT+0000 (Coordinated Universal Time)

1 46114U 20056C 25164.55253160 .00000052 00000+0 00000+0 0 9999 2 46114 0.0143 333.3860 0002381 104.3120 258.3105 1.00271111 17597
UTC large
Height (km)
Speed (km/s)
/
Latitude / Longitude
Inclination (degrees)
Orbital Period (minutes)
Azimuth
Elevation
Range (km)
Doppler Factor

Next 0 passes for location: London (51.5072 / 0.1276)

Sorry there are no passes over London.